Time,TemperatureF,DewpointF,PressureIn,WindDirection,WindDirectionDegrees,WindSpeedMPH,WindSpeedGustMPH,Humidity,HourlyPrecipIn,Conditions,Clouds,dailyrainin,SoftwareType,DateUTC
2013-01-24 08:32:00,15.6,15.2,30.25,West,270,13.4,-999.0,98,-99.99,,,0.00,Acu-Link.com,2013-01-24 13:32:00,
2013-01-24 08:47:00,14.9,14.4,30.26,NE,45,11.4,-999.0,98,-99.99,,,0.00,Acu-Link.com,2013-01-24 13:47:00,
2013-01-24 09:02:00,14.7,14.3,30.27,NE,45,15.4,-999.0,98,-99.99,,,0.00,Acu-Link.com,2013-01-24 14:02:00,
2013-01-24 09:18:00,14.7,14.3,30.29,ENE,67,10.3,-999.0,98,-99.99,,,0.00,Acu-Link.com,2013-01-24 14:18:00,
2013-01-24 09:33:00,14.4,13.9,30.30,NE,45,8.3,-999.0,98,-99.99,,,0.00,Acu-Link.com,2013-01-24 14:33:00,
2013-01-24 09:48:00,14.2,13.7,30.31,NNE,22,7.8,-999.0,98,-99.99,,,0.00,Acu-Link.com,2013-01-24 14:48:00,
2013-01-24 10:03:00,13.5,13.0,30.32,NW,315,9.4,-999.0,98,-99.99,,,0.00,Acu-Link.com,2013-01-24 15:03:00,
2013-01-24 10:19:00,14.0,13.5,30.34,West,270,5.8,-999.0,98,-99.99,,,0.00,Acu-Link.com,2013-01-24 15:19:00,
2013-01-24 10:34:00,14.2,13.7,30.36,NNE,22,6.7,-999.0,98,-99.99,,,0.00,Acu-Link.com,2013-01-24 15:34:00,
2013-01-24 10:49:00,14.7,14.3,30.36,NNW,337,7.8,-999.0,98,-99.99,,,0.00,Acu-Link.com,2013-01-24 15:49:00,
2013-01-24 11:05:00,14.9,14.4,30.38,NE,45,7.8,-999.0,98,-99.99,,,0.00,Acu-Link.com,2013-01-24 16:05:00,
2013-01-24 11:20:00,14.9,14.4,30.39,West,270,5.8,-999.0,98,-99.99,,,0.00,Acu-Link.com,2013-01-24 16:20:00,
2013-01-24 11:35:00,15.1,14.6,30.39,NW,315,7.4,-999.0,98,-99.99,,,0.00,Acu-Link.com,2013-01-24 16:35:00,
2013-01-24 11:51:00,14.9,14.4,30.39,NW,315,2.2,-999.0,98,-99.99,,,0.00,Acu-Link.com,2013-01-24 16:51:00,
2013-01-24 12:06:00,15.1,14.6,30.38,WNW,292,5.8,-999.0,98,-99.99,,,0.00,Acu-Link.com,2013-01-24 17:06:00,
2013-01-24 12:21:00,16.3,15.9,30.39,NE,45,3.1,-999.0,98,-99.99,,,0.00,Acu-Link.com,2013-01-24 17:21:00,
2013-01-24 12:36:00,15.3,14.8,30.39,NW,315,5.1,-999.0,98,-99.99,,,0.00,Acu-Link.com,2013-01-24 17:36:00,
2013-01-24 12:52:00,15.3,14.8,30.39,NW,315,2.7,-999.0,98,-99.99,,,0.00,Acu-Link.com,2013-01-24 17:52:00,
2013-01-24 13:07:00,16.7,16.2,30.39,NNE,22,8.3,-999.0,98,-99.99,,,0.00,Acu-Link.com,2013-01-24 18:07:00,
2013-01-24 13:22:00,15.4,15.0,30.39,West,270,5.1,-999.0,98,-99.99,,,0.00,Acu-Link.com,2013-01-24 18:22:00,
2013-01-24 13:38:00,17.8,17.3,30.39,NE,45,1.6,-999.0,98,-99.99,,,0.00,Acu-Link.com,2013-01-24 18:38:00,
2013-01-24 13:53:00,17.8,17.3,30.39,West,270,4.7,-999.0,98,-99.99,,,0.00,Acu-Link.com,2013-01-24 18:53:00,
2013-01-24 14:08:00,18.3,17.9,30.39,WSW,247,5.8,-999.0,98,-99.99,,,0.00,Acu-Link.com,2013-01-24 19:08:00,
2013-01-24 14:24:00,19.9,19.5,30.39,NW,315,4.7,-999.0,98,-99.99,,,0.00,Acu-Link.com,2013-01-24 19:24:00,
2013-01-24 14:39:00,19.2,18.7,30.39,West,270,1.6,-999.0,98,-99.99,,,0.00,Acu-Link.com,2013-01-24 19:39:00,
2013-01-24 14:54:00,19.6,19.1,30.40,WNW,292,4.7,-999.0,98,-99.99,,,0.00,Acu-Link.com,2013-01-24 19:54:00,
2013-01-24 15:09:00,19.0,18.6,30.40,WNW,292,2.7,-999.0,98,-99.99,,,0.00,Acu-Link.com,2013-01-24 20:09:00,
2013-01-24 15:24:00,20.7,20.2,30.41,SSW,202,2.7,-999.0,98,-99.99,,,0.00,Acu-Link.com,2013-01-24 20:24:00,
2013-01-24 15:40:00,19.8,19.3,30.41,SSE,157,3.1,-999.0,98,-99.99,,,0.00,Acu-Link.com,2013-01-24 20:40:00,
2013-01-24 15:55:00,21.0,20.5,30.42,NE,45,3.8,-999.0,98,-99.99,,,0.00,Acu-Link.com,2013-01-24 20:55:00,
2013-01-24 16:10:00,18.5,18.0,30.42,West,270,4.3,-999.0,98,-99.99,,,0.00,Acu-Link.com,2013-01-24 21:10:00,
2013-01-24 16:26:00,18.5,18.0,30.42,West,270,3.1,-999.0,98,-99.99,,,0.00,Acu-Link.com,2013-01-24 21:26:00,
2013-01-24 16:41:00,18.5,18.0,30.42,NW,315,4.7,-999.0,98,-99.99,,,0.00,Acu-Link.com,2013-01-24 21:41:00,
2013-01-24 16:56:00,18.3,17.9,30.43,North,0,3.1,-999.0,98,-99.99,,,0.00,Acu-Link.com,2013-01-24 21:56:00,
2013-01-24 17:11:00,15.8,15.3,30.43,WNW,292,3.8,-999.0,98,-99.99,,,0.00,Acu-Link.com,2013-01-24 22:11:00,
2013-01-24 17:27:00,14.7,14.3,30.43,NNE,22,1.1,-999.0,98,-99.99,,,0.00,Acu-Link.com,2013-01-24 22:27:00,
2013-01-24 17:42:00,14.2,13.7,30.43,WNW,292,2.2,-999.0,98,-99.99,,,0.00,Acu-Link.com,2013-01-24 22:42:00,
2013-01-24 17:57:00,14.4,13.9,30.44,West,270,7.4,-999.0,98,-99.99,,,0.00,Acu-Link.com,2013-01-24 22:57:00,
2013-01-24 18:13:00,14.5,14.1,30.44,WSW,247,7.8,-999.0,98,-99.99,,,0.00,Acu-Link.com,2013-01-24 23:13:00,
2013-01-24 18:28:00,14.0,13.5,30.44,West,270,7.4,-999.0,98,-99.99,,,0.00,Acu-Link.com,2013-01-24 23:28:00,
2013-01-24 18:43:00,13.8,13.4,30.45,WSW,247,5.1,-999.0,98,-99.99,,,0.00,Acu-Link.com,2013-01-24 23:43:00,
2013-01-24 18:59:00,14.0,13.5,30.45,West,270,3.8,-999.0,98,-99.99,,,0.00,Acu-Link.com,2013-01-24 23:59:00,
2013-01-24 19:14:00,13.6,13.2,30.45,SE,135,4.7,-999.0,98,-99.99,,,0.00,Acu-Link.com,2013-01-25 00:14:00,
2013-01-24 19:29:00,13.6,13.2,30.45,North,0,4.7,-999.0,98,-99.99,,,0.00,Acu-Link.com,2013-01-25 00:29:00,
2013-01-24 19:44:00,13.1,12.6,30.45,WNW,292,4.3,-999.0,98,-99.99,,,0.00,Acu-Link.com,2013-01-25 00:44:00,
2013-01-24 20:00:00,12.9,12.5,30.45,SSE,157,1.6,-999.0,98,-99.99,,,0.00,Acu-Link.com,2013-01-25 01:00:00,
2013-01-24 20:15:00,12.6,12.1,30.44,NW,315,4.7,-999.0,98,-99.99,,,0.00,Acu-Link.com,2013-01-25 01:15:00,
2013-01-24 20:30:00,12.4,11.9,30.43,NE,45,3.1,-999.0,98,-99.99,,,0.00,Acu-Link.com,2013-01-25 01:30:00,
2013-01-24 20:46:00,12.2,11.7,30.44,West,270,4.7,-999.0,98,-99.99,,,0.00,Acu-Link.com,2013-01-25 01:46:00,
2013-01-24 21:01:00,12.0,11.6,30.44,WNW,292,1.6,-999.0,98,-99.99,,,0.00,Acu-Link.com,2013-01-25 02:01:00,
2013-01-24 21:16:00,12.6,12.1,30.44,WNW,292,3.1,-999.0,98,-99.99,,,0.00,Acu-Link.com,2013-01-25 02:16:00,
2013-01-24 21:31:00,12.6,12.1,30.44,NNW,337,4.7,-999.0,98,-99.99,,,0.00,Acu-Link.com,2013-01-25 02:31:00,
2013-01-24 21:47:00,12.7,12.3,30.44,NE,45,2.7,-999.0,98,-99.99,,,0.00,Acu-Link.com,2013-01-25 02:47:00,
2013-01-24 22:02:00,12.7,12.3,30.43,East,90,0.0,-999.0,98,-99.99,,,0.00,Acu-Link.com,2013-01-25 03:02:00,
2013-01-24 22:17:00,12.7,12.3,30.43,West,270,1.1,-999.0,98,-99.99,,,0.00,Acu-Link.com,2013-01-25 03:17:00,
2013-01-24 22:33:00,12.9,12.5,30.43,West,270,5.8,-999.0,98,-99.99,,,0.00,Acu-Link.com,2013-01-25 03:33:00,
2013-01-24 22:48:00,10.4,9.9,30.43,West,270,4.7,-999.0,98,-99.99,,,0.00,Acu-Link.com,2013-01-25 03:48:00,
2013-01-24 23:03:00,9.3,8.9,30.44,SW,225,2.2,-999.0,98,-99.99,,,0.00,Acu-Link.com,2013-01-25 04:03:00,
2013-01-24 23:19:00,9.3,8.9,30.43,East,90,2.7,-999.0,98,-99.99,,,0.00,Acu-Link.com,2013-01-25 04:19:00,
2013-01-24 23:34:00,9.3,8.9,30.44,SW,225,5.1,-999.0,98,-99.99,,,0.00,Acu-Link.com,2013-01-25 04:34:00,
2013-01-24 23:49:00,9.3,8.9,30.44,West,270,4.3,-999.0,98,-99.99,,,0.00,Acu-Link.com,2013-01-25 04:49:00,